Time,TemperatureF,DewpointF,PressureIn,WindDirection,WindDirectionDegrees,WindSpeedMPH,WindSpeedGustMPH,Humidity,HourlyPrecipIn,Conditions,Clouds,dailyrainin,SoftwareType,DateUTC
2013-03-21 00:02:00,49.6,48.0,30.08,West,279,1.0,1.0,94,0.00,,,0.00,meteohub,2013-03-21 07:02:00,
2013-03-21 00:07:00,49.5,47.8,30.08,West,279,0.0,2.0,94,0.00,,,0.00,meteohub,2013-03-21 07:07:00,
2013-03-21 00:12:00,49.3,47.8,30.08,WNW,283,2.0,2.0,95,0.00,,,0.00,meteohub,2013-03-21 07:12:00,
2013-03-21 00:18:00,49.1,47.7,30.08,NW,312,2.0,2.0,95,0.00,,,0.00,meteohub,2013-03-21 07:18:00,
2013-03-21 00:23:00,48.9,47.5,30.08,NW,315,3.0,3.0,95,0.00,,,0.00,meteohub,2013-03-21 07:23:00,
2013-03-21 00:28:00,48.6,46.6,30.08,NNW,332,3.0,4.0,93,0.00,,,0.00,meteohub,2013-03-21 07:28:00,
2013-03-21 00:33:00,48.4,46.2,30.08,North,349,2.0,5.0,92,0.00,,,0.00,meteohub,2013-03-21 07:33:00,
2013-03-21 00:38:00,48.0,45.1,30.08,NW,315,2.0,5.0,90,0.00,,,0.00,meteohub,2013-03-21 07:38:00,
2013-03-21 00:43:00,47.8,45.0,30.08,WSW,252,2.0,5.0,90,0.00,,,0.00,meteohub,2013-03-21 07:43:00,
2013-03-21 00:48:00,47.7,45.0,30.08,WNW,286,2.0,5.0,90,0.00,,,0.00,meteohub,2013-03-21 07:48:00,
2013-03-21 00:53:00,47.5,44.8,30.08,West,262,2.0,6.0,90,0.00,,,0.00,meteohub,2013-03-21 07:53:00,
2013-03-21 00:58:00,47.1,44.4,30.08,West,279,1.0,6.0,90,0.00,,,0.00,meteohub,2013-03-21 07:58:00,
2013-03-21 01:04:00,46.9,44.2,30.08,West,275,2.0,4.0,90,0.00,,,0.00,meteohub,2013-03-21 08:04:00,
2013-03-21 01:09:00,46.6,43.5,30.07,West,272,0.0,4.0,89,0.00,,,0.00,meteohub,2013-03-21 08:09:00,
2013-03-21 01:14:00,46.2,43.2,30.07,WSW,238,1.0,4.0,89,0.00,,,0.00,meteohub,2013-03-21 08:14:00,
2013-03-21 01:19:00,46.2,42.8,30.07,West,275,1.0,5.0,88,0.00,,,0.00,meteohub,2013-03-21 08:19:00,
2013-03-21 01:24:00,46.0,42.4,30.07,WNW,287,2.0,10.0,87,0.00,,,0.00,meteohub,2013-03-21 08:24:00,
2013-03-21 01:29:00,45.9,42.4,30.07,SW,234,1.0,7.0,88,0.00,,,0.00,meteohub,2013-03-21 08:29:00,
2013-03-21 01:34:00,45.7,42.3,30.07,WSW,242,1.0,5.0,88,0.00,,,0.00,meteohub,2013-03-21 08:34:00,
2013-03-21 01:39:00,45.3,42.3,30.08,West,261,0.0,4.0,89,0.00,,,0.00,meteohub,2013-03-21 08:39:00,
2013-03-21 01:44:00,45.0,42.3,30.08,West,266,0.0,4.0,90,0.00,,,0.00,meteohub,2013-03-21 08:44:00,
2013-03-21 01:49:00,44.6,41.9,30.08,West,273,1.0,2.0,90,0.00,,,0.00,meteohub,2013-03-21 08:49:00,
2013-03-21 01:54:00,44.2,41.5,30.08,West,277,1.0,2.0,90,0.00,,,0.00,meteohub,2013-03-21 08:54:00,
2013-03-21 01:59:00,44.2,41.2,30.08,West,273,1.0,2.0,89,0.00,,,0.00,meteohub,2013-03-21 08:59:00,
2013-03-21 02:05:00,44.1,41.0,30.08,NW,309,1.0,1.0,89,0.00,,,0.00,meteohub,2013-03-21 09:05:00,
2013-03-21 02:10:00,44.1,41.0,30.08,West,275,1.0,1.0,89,0.00,,,0.00,meteohub,2013-03-21 09:10:00,
2013-03-21 02:15:00,43.9,40.8,30.08,WNW,284,0.0,1.0,89,0.00,,,0.00,meteohub,2013-03-21 09:15:00,
2013-03-21 02:20:00,43.5,40.5,30.08,West,260,0.0,1.0,89,0.00,,,0.00,meteohub,2013-03-21 09:20:00,
2013-03-21 02:25:00,43.3,40.3,30.08,NE,56,2.0,3.0,89,0.00,,,0.00,meteohub,2013-03-21 09:25:00,
2013-03-21 02:30:00,43.5,40.5,30.08,West,268,1.0,3.0,89,0.00,,,0.00,meteohub,2013-03-21 09:30:00,
2013-03-21 02:35:00,43.3,40.3,30.08,West,261,1.0,2.0,89,0.00,,,0.00,meteohub,2013-03-21 09:35:00,
2013-03-21 02:40:00,43.2,40.5,30.08,WSW,248,1.0,2.0,90,0.00,,,0.00,meteohub,2013-03-21 09:40:00,
2013-03-21 02:45:00,42.8,40.1,30.08,SW,223,2.0,2.0,90,0.00,,,0.00,meteohub,2013-03-21 09:45:00,
2013-03-21 02:50:00,42.6,39.9,30.08,SW,221,1.0,2.0,90,0.00,,,0.00,meteohub,2013-03-21 09:50:00,
2013-03-21 02:55:00,42.6,40.1,30.08,SW,234,0.0,1.0,91,0.00,,,0.00,meteohub,2013-03-21 09:55:00,
2013-03-21 03:00:00,42.4,39.9,30.08,SW,234,1.0,1.0,91,0.00,,,0.00,meteohub,2013-03-21 10:00:00,
2013-03-21 03:06:00,42.4,39.9,30.08,WSW,252,0.0,1.0,91,0.00,,,0.00,meteohub,2013-03-21 10:06:00,
2013-03-21 03:11:00,42.3,39.6,30.08,WSW,252,0.0,1.0,90,0.00,,,0.00,meteohub,2013-03-21 10:11:00,
2013-03-21 03:16:00,42.1,39.6,30.08,WSW,252,0.0,1.0,91,0.00,,,0.00,meteohub,2013-03-21 10:16:00,
2013-03-21 03:21:00,41.7,39.2,30.08,WSW,251,0.0,2.0,91,0.00,,,0.00,meteohub,2013-03-21 10:21:00,
2013-03-21 03:26:00,41.5,39.4,30.08,WSW,252,0.0,2.0,92,0.00,,,0.00,meteohub,2013-03-21 10:26:00,
2013-03-21 03:31:00,41.5,39.4,30.08,WSW,252,0.0,2.0,92,0.00,,,0.00,meteohub,2013-03-21 10:31:00,
2013-03-21 03:36:00,41.5,39.4,30.07,WSW,252,0.0,2.0,92,0.00,,,0.00,meteohub,2013-03-21 10:36:00,
2013-03-21 03:41:00,41.4,39.2,30.07,WSW,253,0.0,3.0,92,0.00,,,0.00,meteohub,2013-03-21 10:41:00,
2013-03-21 03:46:00,41.2,39.0,30.07,WSW,253,0.0,5.0,92,0.00,,,0.00,meteohub,2013-03-21 10:46:00,
2013-03-21 03:51:00,40.8,38.7,30.08,WSW,253,0.0,5.0,92,0.00,,,0.00,meteohub,2013-03-21 10:51:00,
2013-03-21 03:56:00,40.6,38.8,30.08,WSW,251,0.0,5.0,93,0.00,,,0.00,meteohub,2013-03-21 10:56:00,
2013-03-21 04:01:00,40.6,38.8,30.08,WSW,237,0.0,5.0,93,0.00,,,0.00,meteohub,2013-03-21 11:01:00,
2013-03-21 04:06:00,40.5,38.7,30.08,WSW,237,0.0,5.0,93,0.00,,,0.00,meteohub,2013-03-21 11:06:00,
2013-03-21 04:11:00,40.1,38.3,30.08,WSW,237,0.0,6.0,93,0.00,,,0.00,meteohub,2013-03-21 11:11:00,
2013-03-21 04:16:00,39.9,38.1,30.08,SSE,164,0.0,6.0,93,0.00,,,0.00,meteohub,2013-03-21 11:16:00,
2013-03-21 04:21:00,39.7,38.1,30.07,SSE,164,0.0,6.0,94,0.00,,,0.00,meteohub,2013-03-21 11:21:00,
2013-03-21 04:27:00,39.6,37.9,30.07,SSW,194,0.0,4.0,94,0.00,,,0.00,meteohub,2013-03-21 11:27:00,
2013-03-21 04:32:00,39.2,37.6,30.07,SSW,194,0.0,4.0,94,0.00,,,0.00,meteohub,2013-03-21 11:32:00,
2013-03-21 04:37:00,39.0,37.4,30.08,SSW,194,0.0,10.0,94,0.00,,,0.00,meteohub,2013-03-21 11:37:00,
2013-03-21 04:42:00,39.0,37.4,30.08,SE,140,1.0,10.0,94,0.00,,,0.00,meteohub,2013-03-21 11:42:00,
2013-03-21 04:47:00,39.0,37.8,30.08,ESE,112,0.0,10.0,95,0.00,,,0.00,meteohub,2013-03-21 11:47:00,
2013-03-21 04:52:00,38.8,37.6,30.07,ESE,111,0.0,7.0,95,0.00,,,0.00,meteohub,2013-03-21 11:52:00,
2013-03-21 04:58:00,38.7,37.4,30.07,ESE,112,0.0,4.0,95,0.00,,,0.00,meteohub,2013-03-21 11:58:00,
2013-03-21 05:03:00,38.5,37.2,30.07,ESE,112,0.0,4.0,95,0.00,,,0.00,meteohub,2013-03-21 12:03:00,
2013-03-21 05:08:00,38.1,36.9,30.06,ESE,112,0.0,4.0,95,0.00,,,0.00,meteohub,2013-03-21 12:08:00,
2013-03-21 05:13:00,37.9,36.7,30.06,ESE,112,2.0,2.0,95,0.00,,,0.00,meteohub,2013-03-21 12:13:00,
2013-03-21 05:18:00,38.1,36.9,30.06,WNW,291,1.0,3.0,95,0.00,,,0.00,meteohub,2013-03-21 12:18:00,
2013-03-21 05:24:00,37.9,36.7,30.06,West,278,0.0,3.0,95,0.00,,,0.00,meteohub,2013-03-21 12:24:00,
2013-03-21 05:29:00,37.9,36.7,30.06,West,277,0.0,5.0,95,0.00,,,0.00,meteohub,2013-03-21 12:29:00,
2013-03-21 05:34:00,37.9,36.7,30.06,West,279,0.0,4.0,95,0.00,,,0.00,meteohub,2013-03-21 12:34:00,
2013-03-21 05:39:00,37.9,36.7,30.06,NW,306,2.0,4.0,95,0.00,,,0.00,meteohub,2013-03-21 12:39:00,
2013-03-21 05:45:00,37.9,36.9,30.06,West,277,2.0,2.0,96,0.00,,,0.00,meteohub,2013-03-21 12:45:00,
2013-03-21 05:50:00,37.9,36.9,30.08,WNW,296,0.0,2.0,96,0.00,,,0.00,meteohub,2013-03-21 12:50:00,
2013-03-21 05:56:00,37.8,36.5,30.08,WNW,296,0.0,2.0,95,0.00,,,0.00,meteohub,2013-03-21 12:56:00,
2013-03-21 06:01:00,37.8,36.7,30.08,WNW,294,1.0,2.0,96,0.00,,,0.00,meteohub,2013-03-21 13:01:00,
2013-03-21 06:07:00,37.6,36.3,30.08,WNW,294,1.0,3.0,95,0.00,,,0.00,meteohub,2013-03-21 13:07:00,
2013-03-21 06:12:00,37.2,36.1,30.08,WNW,294,0.0,3.0,96,0.00,,,0.00,meteohub,2013-03-21 13:12:00,
2013-03-21 06:17:00,37.2,36.1,30.08,WNW,293,0.0,1.0,96,0.00,,,0.00,meteohub,2013-03-21 13:17:00,
2013-03-21 06:22:00,37.2,36.1,30.07,WNW,294,0.0,1.0,96,0.00,,,0.00,meteohub,2013-03-21 13:22:00,
2013-03-21 06:27:00,37.2,36.1,30.07,WNW,294,0.0,1.0,96,0.00,,,0.00,meteohub,2013-03-21 13:27:00,
2013-03-21 06:32:00,37.0,36.0,30.07,WNW,294,1.0,1.0,96,0.00,,,0.00,meteohub,2013-03-21 13:32:00,
2013-03-21 06:37:00,37.0,36.0,30.08,WNW,294,0.0,1.0,96,0.00,,,0.00,meteohub,2013-03-21 13:37:00,
2013-03-21 06:42:00,37.0,36.0,30.08,NW,313,0.0,1.0,96,0.00,,,0.00,meteohub,2013-03-21 13:42:00,
2013-03-21 06:47:00,37.0,36.0,30.08,NW,313,0.0,2.0,96,0.00,,,0.00,meteohub,2013-03-21 13:47:00,
2013-03-21 06:52:00,37.0,36.0,30.08,NW,313,0.0,2.0,96,0.00,,,0.00,meteohub,2013-03-21 13:52:00,
2013-03-21 06:57:00,37.0,36.0,30.08,NW,312,0.0,1.0,96,0.00,,,0.00,meteohub,2013-03-21 13:57:00,
2013-03-21 07:02:00,37.0,36.0,30.08,NW,313,0.0,1.0,96,0.00,,,0.00,meteohub,2013-03-21 14:02:00,
2013-03-21 07:07:00,36.9,35.8,30.09,WNW,288,1.0,2.0,96,0.00,,,0.00,meteohub,2013-03-21 14:07:00,
2013-03-21 07:12:00,36.7,35.6,30.09,West,271,0.0,2.0,96,0.00,,,0.00,meteohub,2013-03-21 14:12:00,
2013-03-21 07:17:00,36.3,35.2,30.09,West,271,0.0,2.0,96,0.00,,,0.00,meteohub,2013-03-21 14:17:00,
2013-03-21 07:22:00,36.3,35.2,30.09,West,270,0.0,2.0,96,0.00,,,0.00,meteohub,2013-03-21 14:22:00,
2013-03-21 07:27:00,36.1,35.1,30.09,West,271,0.0,1.0,96,0.00,,,0.00,meteohub,2013-03-21 14:27:00,
2013-03-21 07:32:00,36.3,35.2,30.09,West,271,0.0,1.0,96,0.00,,,0.00,meteohub,2013-03-21 14:32:00,
2013-03-21 07:37:00,36.3,35.2,30.09,West,271,0.0,1.0,96,0.00,,,0.00,meteohub,2013-03-21 14:37:00,
2013-03-21 07:43:00,36.9,35.8,30.09,West,271,0.0,1.0,96,0.00,,,0.00,meteohub,2013-03-21 14:43:00,
2013-03-21 07:48:00,37.4,36.3,30.09,West,271,0.0,1.0,96,0.00,,,0.00,meteohub,2013-03-21 14:48:00,
2013-03-21 07:53:00,38.1,37.0,30.09,West,271,0.0,0.0,96,0.00,,,0.00,meteohub,2013-03-21 14:53:00,
2013-03-21 07:58:00,38.1,37.0,30.09,West,271,1.0,1.0,96,0.00,,,0.00,meteohub,2013-03-21 14:58:00,
2013-03-21 08:03:00,38.1,37.0,30.09,West,269,0.0,1.0,96,0.00,,,0.00,meteohub,2013-03-21 15:03:00,
2013-03-21 08:08:00,39.0,37.9,30.08,West,269,0.0,1.0,96,0.00,,,0.00,meteohub,2013-03-21 15:08:00,
2013-03-21 08:13:00,40.1,39.0,30.08,West,269,1.0,1.0,96,0.00,,,0.00,meteohub,2013-03-21 15:13:00,
2013-03-21 08:18:00,40.6,39.6,30.08,West,269,0.0,1.0,96,0.00,,,0.00,meteohub,2013-03-21 15:18:00,
2013-03-21 08:23:00,42.4,41.4,30.09,West,271,0.0,1.0,96,0.00,,,0.00,meteohub,2013-03-21 15:23:00,
2013-03-21 08:29:00,44.1,43.0,30.09,West,270,0.0,0.0,96,0.00,,,0.00,meteohub,2013-03-21 15:29:00,
2013-03-21 08:34:00,44.2,42.6,30.09,West,271,0.0,0.0,94,0.00,,,0.00,meteohub,2013-03-21 15:34:00,
2013-03-21 08:39:00,43.9,41.7,30.08,West,271,0.0,1.0,92,0.00,,,0.00,meteohub,2013-03-21 15:39:00,
2013-03-21 08:44:00,43.5,41.4,30.08,West,272,0.0,1.0,92,0.00,,,0.00,meteohub,2013-03-21 15:44:00,
2013-03-21 08:49:00,44.6,42.6,30.08,West,271,0.0,1.0,93,0.00,,,0.00,meteohub,2013-03-21 15:49:00,
2013-03-21 08:54:00,44.8,41.4,30.08,SW,214,1.0,2.0,88,0.00,,,0.00,meteohub,2013-03-21 15:54:00,
2013-03-21 08:59:00,45.1,41.7,30.08,SSW,209,0.0,2.0,88,0.00,,,0.00,meteohub,2013-03-21 15:59:00,
2013-03-21 09:04:00,45.3,41.4,30.08,SW,229,0.0,1.0,86,0.00,,,0.00,meteohub,2013-03-21 16:04:00,
2013-03-21 09:09:00,46.0,42.1,30.08,SW,217,1.0,2.0,86,0.00,,,0.00,meteohub,2013-03-21 16:09:00,
2013-03-21 09:14:00,47.1,42.6,30.08,SSE,163,1.0,2.0,84,0.00,,,0.00,meteohub,2013-03-21 16:14:00,
2013-03-21 09:19:00,48.2,43.3,30.08,SSE,150,0.0,2.0,83,0.00,,,0.00,meteohub,2013-03-21 16:19:00,
2013-03-21 09:24:00,48.9,42.6,30.08,SW,214,0.0,2.0,79,0.00,,,0.00,meteohub,2013-03-21 16:24:00,
2013-03-21 09:29:00,48.9,42.6,30.08,NNW,331,1.0,3.0,79,0.00,,,0.00,meteohub,2013-03-21 16:29:00,
2013-03-21 09:34:00,48.4,42.3,30.08,NNW,329,0.0,3.0,79,0.00,,,0.00,meteohub,2013-03-21 16:34:00,
2013-03-21 09:39:00,48.0,42.4,30.08,West,259,0.0,3.0,81,0.00,,,0.00,meteohub,2013-03-21 16:39:00,
2013-03-21 09:44:00,48.9,42.6,30.08,WSW,254,1.0,3.0,79,0.00,,,0.00,meteohub,2013-03-21 16:44:00,
2013-03-21 09:50:00,48.7,42.8,30.08,West,266,0.0,2.0,80,0.00,,,0.00,meteohub,2013-03-21 16:50:00,
2013-03-21 09:55:00,49.8,43.5,30.08,East,92,1.0,2.0,79,0.00,,,0.00,meteohub,2013-03-21 16:55:00,
2013-03-21 10:00:00,50.0,43.2,30.08,West,277,2.0,2.0,77,0.00,,,0.00,meteohub,2013-03-21 17:00:00,
2013-03-21 10:05:00,49.6,43.0,30.07,NW,319,1.0,3.0,78,0.00,,,0.00,meteohub,2013-03-21 17:05:00,
2013-03-21 10:10:00,50.4,43.3,30.07,SSW,207,3.0,3.0,77,0.00,,,0.00,meteohub,2013-03-21 17:10:00,
2013-03-21 10:15:00,51.1,43.7,30.07,SSW,203,0.0,4.0,76,0.00,,,0.00,meteohub,2013-03-21 17:15:00,
2013-03-21 10:20:00,52.0,43.9,30.08,SSW,211,1.0,4.0,74,0.00,,,0.00,meteohub,2013-03-21 17:20:00,
2013-03-21 10:25:00,52.2,44.1,30.08,SSE,161,2.0,5.0,74,0.00,,,0.00,meteohub,2013-03-21 17:25:00,
2013-03-21 10:30:00,52.2,43.7,30.08,South,171,2.0,5.0,73,0.00,,,0.00,meteohub,2013-03-21 17:30:00,
2013-03-21 10:35:00,52.9,44.1,30.08,South,182,2.0,4.0,72,0.00,,,0.00,meteohub,2013-03-21 17:35:00,
2013-03-21 10:40:00,52.9,43.7,30.08,WSW,238,1.0,4.0,71,0.00,,,0.00,meteohub,2013-03-21 17:40:00,
2013-03-21 10:46:00,53.4,44.2,30.08,ESE,113,2.0,4.0,71,0.00,,,0.00,meteohub,2013-03-21 17:46:00,
2013-03-21 10:51:00,54.0,44.4,30.08,NNW,336,1.0,3.0,70,0.00,,,0.00,meteohub,2013-03-21 17:51:00,
2013-03-21 10:56:00,54.7,45.1,30.08,West,265,2.0,3.0,70,0.00,,,0.00,meteohub,2013-03-21 17:56:00,
2013-03-21 11:01:00,54.7,44.2,30.08,WNW,283,1.0,4.0,68,0.00,,,0.00,meteohub,2013-03-21 18:01:00,
2013-03-21 11:06:00,54.9,44.4,30.08,NNE,22,2.0,4.0,68,0.00,,,0.00,meteohub,2013-03-21 18:06:00,
2013-03-21 11:12:00,55.0,44.6,30.08,SW,221,3.0,4.0,68,0.00,,,0.00,meteohub,2013-03-21 18:12:00,
2013-03-21 11:17:00,55.9,44.8,30.08,South,171,2.0,4.0,66,0.00,,,0.00,meteohub,2013-03-21 18:17:00,
2013-03-21 11:22:00,56.5,44.8,30.08,SW,223,3.0,5.0,65,0.00,,,0.00,meteohub,2013-03-21 18:22:00,
2013-03-21 11:27:00,56.5,44.8,30.08,SW,229,1.0,5.0,65,0.00,,,0.00,meteohub,2013-03-21 18:27:00,
2013-03-21 11:32:00,56.8,44.8,30.08,SSW,209,0.0,4.0,64,0.00,,,0.00,meteohub,2013-03-21 18:32:00,
2013-03-21 11:37:00,57.2,44.8,30.08,WNW,288,1.0,4.0,63,0.00,,,0.00,meteohub,2013-03-21 18:37:00,
2013-03-21 11:42:00,57.6,44.2,30.08,NNW,334,1.0,5.0,61,0.00,,,0.00,meteohub,2013-03-21 18:42:00,
2013-03-21 11:47:00,57.6,45.1,30.08,NW,326,3.0,4.0,63,0.00,,,0.00,meteohub,2013-03-21 18:47:00,
2013-03-21 11:52:00,57.4,44.4,30.07,ENE,67,2.0,6.0,62,0.00,,,0.00,meteohub,2013-03-21 18:52:00,
2013-03-21 11:57:00,57.6,44.2,30.07,SE,145,2.0,6.0,61,0.00,,,0.00,meteohub,2013-03-21 18:57:00,
2013-03-21 12:02:00,58.6,44.8,30.07,NNW,347,0.0,6.0,60,0.00,,,0.00,meteohub,2013-03-21 19:02:00,
2013-03-21 12:08:00,59.0,44.8,30.07,SW,227,3.0,5.0,59,0.00,,,0.00,meteohub,2013-03-21 19:08:00,
2013-03-21 12:13:00,58.8,43.7,30.07,NNW,338,1.0,5.0,57,0.00,,,0.00,meteohub,2013-03-21 19:13:00,
2013-03-21 12:18:00,58.6,43.5,30.07,NNW,333,1.0,5.0,57,0.00,,,0.00,meteohub,2013-03-21 19:18:00,
2013-03-21 12:23:00,59.4,44.1,30.06,NE,52,2.0,7.0,57,0.00,,,0.00,meteohub,2013-03-21 19:23:00,
2013-03-21 12:28:00,59.9,43.2,30.06,West,261,2.0,7.0,54,0.00,,,0.00,meteohub,2013-03-21 19:28:00,
2013-03-21 12:33:00,59.7,44.1,30.06,WNW,292,3.0,6.0,56,0.00,,,0.00,meteohub,2013-03-21 19:33:00,
2013-03-21 12:38:00,60.1,44.4,30.06,SW,229,2.0,6.0,56,0.00,,,0.00,meteohub,2013-03-21 19:38:00,
2013-03-21 12:43:00,61.0,44.2,30.06,WSW,237,5.0,6.0,54,0.00,,,0.00,meteohub,2013-03-21 19:43:00,
2013-03-21 12:48:00,61.0,44.8,30.06,NW,319,5.0,6.0,55,0.00,,,0.00,meteohub,2013-03-21 19:48:00,
2013-03-21 12:54:00,61.0,43.7,30.06,West,270,1.0,7.0,53,0.00,,,0.00,meteohub,2013-03-21 19:54:00,
2013-03-21 12:59:00,61.3,44.1,30.06,NNW,327,4.0,6.0,53,0.00,,,0.00,meteohub,2013-03-21 19:59:00,
2013-03-21 13:04:00,61.2,44.4,30.06,West,275,0.0,6.0,54,0.00,,,0.00,meteohub,2013-03-21 20:04:00,
2013-03-21 13:09:00,61.3,44.1,30.05,WNW,294,1.0,6.0,53,0.00,,,0.00,meteohub,2013-03-21 20:09:00,
2013-03-21 13:14:00,61.2,43.3,30.05,WNW,298,5.0,6.0,52,0.00,,,0.00,meteohub,2013-03-21 20:14:00,
2013-03-21 13:19:00,61.7,44.4,30.05,SW,225,2.0,6.0,53,0.00,,,0.00,meteohub,2013-03-21 20:19:00,
2013-03-21 13:24:00,62.2,43.3,30.04,NE,48,4.0,6.0,50,0.00,,,0.00,meteohub,2013-03-21 20:24:00,
2013-03-21 13:29:00,62.2,43.3,30.04,WNW,283,4.0,9.0,50,0.00,,,0.00,meteohub,2013-03-21 20:29:00,
2013-03-21 13:34:00,62.4,44.1,30.04,WNW,287,2.0,9.0,51,0.00,,,0.00,meteohub,2013-03-21 20:34:00,
2013-03-21 13:39:00,62.8,45.3,30.04,NE,39,4.0,10.0,53,0.00,,,0.00,meteohub,2013-03-21 20:39:00,
2013-03-21 13:44:00,63.0,44.6,30.04,South,187,4.0,11.0,51,0.00,,,0.00,meteohub,2013-03-21 20:44:00,
2013-03-21 13:49:00,63.3,45.9,30.04,WNW,285,4.0,11.0,53,0.00,,,0.00,meteohub,2013-03-21 20:49:00,
2013-03-21 13:54:00,63.3,44.4,30.03,WSW,245,4.0,11.0,50,0.00,,,0.00,meteohub,2013-03-21 20:54:00,
2013-03-21 13:59:00,63.3,45.0,30.03,WSW,246,1.0,11.0,51,0.00,,,0.00,meteohub,2013-03-21 20:59:00,
2013-03-21 14:05:00,63.7,44.8,30.03,NW,311,3.0,11.0,50,0.00,,,0.00,meteohub,2013-03-21 21:05:00,
2013-03-21 14:10:00,63.7,44.2,30.03,WNW,294,3.0,11.0,49,0.00,,,0.00,meteohub,2013-03-21 21:10:00,
2013-03-21 14:15:00,63.9,43.7,30.03,WNW,288,5.0,11.0,48,0.00,,,0.00,meteohub,2013-03-21 21:15:00,
2013-03-21 14:20:00,64.2,44.1,30.01,NW,319,1.0,6.0,48,0.00,,,0.00,meteohub,2013-03-21 21:20:00,
2013-03-21 14:25:00,64.2,43.5,30.01,ENE,78,3.0,9.0,47,0.00,,,0.00,meteohub,2013-03-21 21:25:00,
2013-03-21 14:30:00,63.7,43.2,30.01,NW,321,5.0,11.0,47,0.00,,,0.00,meteohub,2013-03-21 21:30:00,
2013-03-21 14:35:00,64.8,44.6,30.01,WNW,303,2.0,11.0,48,0.00,,,0.00,meteohub,2013-03-21 21:35:00,
2013-03-21 14:41:00,65.1,44.4,30.01,WNW,298,2.0,11.0,47,0.00,,,0.00,meteohub,2013-03-21 21:41:00,
2013-03-21 14:46:00,64.8,43.0,30.01,WNW,284,3.0,10.0,45,0.00,,,0.00,meteohub,2013-03-21 21:46:00,
2013-03-21 14:51:00,64.8,43.5,30.00,SSW,211,4.0,10.0,46,0.00,,,0.00,meteohub,2013-03-21 21:51:00,
2013-03-21 14:56:00,65.5,43.0,30.00,SSW,205,2.0,8.0,44,0.00,,,0.00,meteohub,2013-03-21 21:56:00,
2013-03-21 15:01:00,65.7,43.2,30.00,West,273,5.0,10.0,44,0.00,,,0.00,meteohub,2013-03-21 22:01:00,
2013-03-21 15:06:00,65.5,42.4,29.99,WNW,298,5.0,10.0,43,0.00,,,0.00,meteohub,2013-03-21 22:06:00,
2013-03-21 15:11:00,65.1,43.3,29.99,SW,223,5.0,10.0,45,0.00,,,0.00,meteohub,2013-03-21 22:11:00,
2013-03-21 15:16:00,65.7,43.2,29.99,WSW,250,5.0,8.0,44,0.00,,,0.00,meteohub,2013-03-21 22:16:00,
2013-03-21 15:21:00,66.4,43.9,29.99,SW,219,4.0,11.0,44,0.00,,,0.00,meteohub,2013-03-21 22:21:00,
2013-03-21 15:26:00,66.6,43.3,29.99,WSW,258,4.0,11.0,43,0.00,,,0.00,meteohub,2013-03-21 22:26:00,
2013-03-21 15:32:00,66.4,45.0,29.99,West,280,2.0,7.0,46,0.00,,,0.00,meteohub,2013-03-21 22:32:00,
2013-03-21 15:37:00,66.6,44.6,29.98,WNW,288,5.0,6.0,45,0.00,,,0.00,meteohub,2013-03-21 22:37:00,
2013-03-21 15:42:00,66.7,44.8,29.98,WSW,257,10.0,10.0,45,0.00,,,0.00,meteohub,2013-03-21 22:42:00,
2013-03-21 15:47:00,66.6,44.6,29.98,SSW,209,4.0,12.0,45,0.00,,,0.00,meteohub,2013-03-21 22:47:00,
2013-03-21 15:52:00,66.4,45.0,29.98,SW,221,5.0,12.0,46,0.00,,,0.00,meteohub,2013-03-21 22:52:00,
2013-03-21 15:57:00,66.7,44.8,29.98,WNW,283,4.0,13.0,45,0.00,,,0.00,meteohub,2013-03-21 22:57:00,
2013-03-21 16:02:00,66.6,44.6,29.98,WNW,288,5.0,13.0,45,0.00,,,0.00,meteohub,2013-03-21 23:02:00,
2013-03-21 16:07:00,65.8,43.9,29.98,West,275,2.0,12.0,45,0.00,,,0.00,meteohub,2013-03-21 23:07:00,
2013-03-21 16:12:00,66.4,45.0,29.98,West,265,6.0,12.0,46,0.00,,,0.00,meteohub,2013-03-21 23:12:00,
2013-03-21 16:17:00,66.6,44.1,29.98,WSW,253,2.0,12.0,44,0.00,,,0.00,meteohub,2013-03-21 23:17:00,
2013-03-21 16:22:00,66.7,43.5,29.97,West,275,3.0,11.0,43,0.00,,,0.00,meteohub,2013-03-21 23:22:00,
2013-03-21 16:27:00,67.1,43.9,29.97,South,190,4.0,10.0,43,0.00,,,0.00,meteohub,2013-03-21 23:27:00,
2013-03-21 16:32:00,66.7,45.9,29.97,SW,226,3.0,9.0,47,0.00,,,0.00,meteohub,2013-03-21 23:32:00,
2013-03-21 16:37:00,66.2,45.9,29.97,SSW,211,2.0,9.0,48,0.00,,,0.00,meteohub,2013-03-21 23:37:00,
2013-03-21 16:42:00,65.8,46.2,29.97,SW,218,5.0,12.0,49,0.00,,,0.00,meteohub,2013-03-21 23:42:00,
2013-03-21 16:47:00,65.3,46.2,29.97,South,187,6.0,12.0,50,0.00,,,0.00,meteohub,2013-03-21 23:47:00,
2013-03-21 16:52:00,64.9,46.4,29.97,SSW,195,6.0,12.0,51,0.00,,,0.00,meteohub,2013-03-21 23:52:00,
2013-03-21 16:58:00,64.4,45.9,29.97,South,187,5.0,10.0,51,0.00,,,0.00,meteohub,2013-03-21 23:58:00,
2013-03-21 17:03:00,63.9,45.9,29.97,SE,138,3.0,14.0,52,0.00,,,0.00,meteohub,2013-03-22 00:03:00,
2013-03-21 17:08:00,63.7,45.7,29.97,South,188,7.0,14.0,52,0.00,,,0.00,meteohub,2013-03-22 00:08:00,
2013-03-21 17:13:00,63.3,45.0,29.97,SSW,211,3.0,13.0,51,0.00,,,0.00,meteohub,2013-03-22 00:13:00,
2013-03-21 17:18:00,63.5,45.0,29.97,SSW,202,5.0,12.0,51,0.00,,,0.00,meteohub,2013-03-22 00:18:00,
2013-03-21 17:23:00,63.7,45.1,29.96,South,188,4.0,12.0,51,0.00,,,0.00,meteohub,2013-03-22 00:23:00,
2013-03-21 17:28:00,63.5,45.0,29.96,SW,226,6.0,10.0,51,0.00,,,0.00,meteohub,2013-03-22 00:28:00,
2013-03-21 17:33:00,64.0,45.5,29.96,SW,214,2.0,10.0,51,0.00,,,0.00,meteohub,2013-03-22 00:33:00,
2013-03-21 17:38:00,64.0,45.0,29.96,SSW,205,1.0,10.0,50,0.00,,,0.00,meteohub,2013-03-22 00:38:00,
2013-03-21 17:44:00,64.0,45.5,29.96,SW,214,1.0,7.0,51,0.00,,,0.00,meteohub,2013-03-22 00:44:00,
2013-03-21 17:49:00,64.0,45.0,29.96,WSW,241,2.0,8.0,50,0.00,,,0.00,meteohub,2013-03-22 00:49:00,
2013-03-21 17:54:00,63.9,44.8,29.96,WNW,284,2.0,8.0,50,0.00,,,0.00,meteohub,2013-03-22 00:54:00,
2013-03-21 17:59:00,64.2,45.7,29.96,SW,230,3.0,7.0,51,0.00,,,0.00,meteohub,2013-03-22 00:59:00,
2013-03-21 18:04:00,64.0,45.0,29.96,SW,218,1.0,7.0,50,0.00,,,0.00,meteohub,2013-03-22 01:04:00,
2013-03-21 18:09:00,64.2,44.6,29.96,SW,219,2.0,6.0,49,0.00,,,0.00,meteohub,2013-03-22 01:09:00,
2013-03-21 18:14:00,64.0,44.4,29.96,SSE,152,2.0,6.0,49,0.00,,,0.00,meteohub,2013-03-22 01:14:00,
2013-03-21 18:19:00,64.0,44.4,29.96,West,260,1.0,6.0,49,0.00,,,0.00,meteohub,2013-03-22 01:19:00,
2013-03-21 18:24:00,63.5,44.6,29.96,SSW,203,3.0,6.0,50,0.00,,,0.00,meteohub,2013-03-22 01:24:00,
2013-03-21 18:29:00,63.5,45.0,29.96,SW,228,1.0,5.0,51,0.00,,,0.00,meteohub,2013-03-22 01:29:00,
2013-03-21 18:35:00,63.3,44.4,29.96,SW,221,1.0,4.0,50,0.00,,,0.00,meteohub,2013-03-22 01:35:00,
2013-03-21 18:40:00,63.9,44.8,29.96,WSW,238,0.0,4.0,50,0.00,,,0.00,meteohub,2013-03-22 01:40:00,
2013-03-21 18:45:00,64.0,44.4,29.96,SW,232,0.0,3.0,49,0.00,,,0.00,meteohub,2013-03-22 01:45:00,
2013-03-21 18:50:00,64.2,45.1,29.96,WSW,240,1.0,2.0,50,0.00,,,0.00,meteohub,2013-03-22 01:50:00,
2013-03-21 18:55:00,63.7,44.8,29.96,SW,226,0.0,2.0,50,0.00,,,0.00,meteohub,2013-03-22 01:55:00,
2013-03-21 19:00:00,63.3,44.4,29.96,West,272,1.0,2.0,50,0.00,,,0.00,meteohub,2013-03-22 02:00:00,
2013-03-21 19:05:00,62.6,44.8,29.96,West,268,2.0,3.0,52,0.00,,,0.00,meteohub,2013-03-22 02:05:00,
2013-03-21 19:10:00,61.5,43.7,29.96,West,275,2.0,3.0,52,0.00,,,0.00,meteohub,2013-03-22 02:10:00,
2013-03-21 19:15:00,61.0,43.7,29.96,NW,317,1.0,3.0,53,0.00,,,0.00,meteohub,2013-03-22 02:15:00,
2013-03-21 19:20:00,60.3,44.1,29.96,WNW,296,1.0,3.0,55,0.00,,,0.00,meteohub,2013-03-22 02:20:00,
2013-03-21 19:25:00,59.7,44.1,29.96,NW,306,0.0,3.0,56,0.00,,,0.00,meteohub,2013-03-22 02:25:00,
2013-03-21 19:30:00,59.2,43.9,29.96,NW,306,1.0,3.0,57,0.00,,,0.00,meteohub,2013-03-22 02:30:00,
2013-03-21 19:36:00,58.8,44.1,29.97,WNW,283,1.0,2.0,58,0.00,,,0.00,meteohub,2013-03-22 02:36:00,
2013-03-21 19:41:00,58.5,44.2,29.97,WSW,250,1.0,2.0,59,0.00,,,0.00,meteohub,2013-03-22 02:41:00,
2013-03-21 19:46:00,57.9,44.6,29.97,West,275,1.0,3.0,61,0.00,,,0.00,meteohub,2013-03-22 02:46:00,
2013-03-21 19:51:00,57.4,44.4,29.97,West,277,1.0,3.0,62,0.00,,,0.00,meteohub,2013-03-22 02:51:00,
2013-03-21 19:57:00,56.8,44.4,29.97,NW,323,1.0,3.0,63,0.00,,,0.00,meteohub,2013-03-22 02:57:00,
2013-03-21 20:02:00,56.7,43.7,29.97,NNW,329,3.0,3.0,62,0.00,,,0.00,meteohub,2013-03-22 03:02:00,
2013-03-21 20:07:00,56.8,42.3,29.97,NW,326,3.0,4.0,58,0.00,,,0.00,meteohub,2013-03-22 03:07:00,
2013-03-21 20:12:00,56.8,41.7,29.97,NW,311,2.0,4.0,57,0.00,,,0.00,meteohub,2013-03-22 03:12:00,
2013-03-21 20:18:00,56.8,41.4,29.97,West,279,1.0,5.0,56,0.00,,,0.00,meteohub,2013-03-22 03:18:00,
2013-03-21 20:23:00,56.7,41.5,29.97,West,277,1.0,5.0,57,0.00,,,0.00,meteohub,2013-03-22 03:23:00,
2013-03-21 20:28:00,56.1,41.5,29.97,West,266,1.0,3.0,58,0.00,,,0.00,meteohub,2013-03-22 03:28:00,
2013-03-21 20:33:00,55.8,41.7,29.97,West,281,1.0,3.0,59,0.00,,,0.00,meteohub,2013-03-22 03:33:00,
2013-03-21 20:38:00,55.4,41.7,29.98,West,265,2.0,4.0,60,0.00,,,0.00,meteohub,2013-03-22 03:38:00,
2013-03-21 20:43:00,55.0,41.4,29.98,NNW,329,2.0,4.0,60,0.00,,,0.00,meteohub,2013-03-22 03:43:00,
2013-03-21 20:48:00,54.5,41.7,29.98,West,279,1.0,3.0,62,0.00,,,0.00,meteohub,2013-03-22 03:48:00,
2013-03-21 20:53:00,54.0,42.1,29.98,NW,310,1.0,3.0,64,0.00,,,0.00,meteohub,2013-03-22 03:53:00,
2013-03-21 20:58:00,53.2,42.3,29.98,NNW,332,1.0,2.0,66,0.00,,,0.00,meteohub,2013-03-22 03:58:00,
2013-03-21 21:00:00,53.1,42.4,29.98,NW,317,2.0,2.0,67,0.00,,,0.00,meteohub,2013-03-22 04:00:00,
2013-03-21 21:01:00,52.9,42.6,29.98,NW,310,2.0,2.0,68,0.00,,,0.00,meteohub,2013-03-22 04:01:00,
2013-03-21 21:02:00,52.9,43.0,29.98,NW,311,2.0,2.0,69,0.00,,,0.00,meteohub,2013-03-22 04:02:00,
2013-03-21 21:03:00,52.7,42.8,29.98,NW,311,1.0,2.0,69,0.00,,,0.00,meteohub,2013-03-22 04:03:00,
2013-03-21 21:08:00,52.5,41.9,29.99,NW,323,2.0,3.0,67,0.00,,,0.00,meteohub,2013-03-22 04:08:00,
2013-03-21 21:13:00,52.5,41.5,29.99,NW,315,1.0,5.0,66,0.00,,,0.00,meteohub,2013-03-22 04:13:00,
2013-03-21 21:18:00,52.5,41.9,29.99,SW,219,2.0,5.0,67,0.00,,,0.00,meteohub,2013-03-22 04:18:00,
2013-03-21 21:23:00,52.2,41.5,29.99,WSW,238,1.0,4.0,67,0.00,,,0.00,meteohub,2013-03-22 04:23:00,
2013-03-21 21:29:00,52.0,41.4,29.99,NW,307,1.0,2.0,67,0.00,,,0.00,meteohub,2013-03-22 04:29:00,
2013-03-21 21:34:00,51.6,41.4,29.99,NW,306,0.0,2.0,68,0.00,,,0.00,meteohub,2013-03-22 04:34:00,
2013-03-21 21:39:00,51.3,41.4,30.00,NW,306,0.0,2.0,69,0.00,,,0.00,meteohub,2013-03-22 04:39:00,
2013-03-21 21:44:00,51.1,41.2,30.00,NNW,342,0.0,2.0,69,0.00,,,0.00,meteohub,2013-03-22 04:44:00,
2013-03-21 21:49:00,50.7,41.4,30.00,NNW,342,0.0,2.0,70,0.00,,,0.00,meteohub,2013-03-22 04:49:00,
2013-03-21 21:54:00,50.5,41.2,30.01,NW,326,2.0,2.0,70,0.00,,,0.00,meteohub,2013-03-22 04:54:00,
2013-03-21 21:59:00,50.5,41.2,30.01,WNW,298,2.0,3.0,70,0.00,,,0.00,meteohub,2013-03-22 04:59:00,
2013-03-21 22:04:00,50.4,41.0,30.01,NW,315,0.0,3.0,70,0.00,,,0.00,meteohub,2013-03-22 05:04:00,
2013-03-21 22:09:00,50.2,40.8,30.01,NW,315,2.0,3.0,70,0.00,,,0.00,meteohub,2013-03-22 05:09:00,
2013-03-21 22:14:00,50.2,40.8,30.01,NW,306,0.0,3.0,70,0.00,,,0.00,meteohub,2013-03-22 05:14:00,
2013-03-21 22:19:00,50.2,40.5,30.01,NW,307,1.0,2.0,69,0.00,,,0.00,meteohub,2013-03-22 05:19:00,
2013-03-21 22:25:00,50.0,40.6,30.01,NNE,30,1.0,3.0,70,0.00,,,0.00,meteohub,2013-03-22 05:25:00,
2013-03-21 22:30:00,49.6,40.3,30.01,NNE,28,1.0,3.0,70,0.00,,,0.00,meteohub,2013-03-22 05:30:00,
2013-03-21 22:35:00,49.3,40.3,30.01,WNW,300,0.0,2.0,71,0.00,,,0.00,meteohub,2013-03-22 05:35:00,
2013-03-21 22:40:00,48.7,40.1,30.01,WNW,302,0.0,2.0,72,0.00,,,0.00,meteohub,2013-03-22 05:40:00,
2013-03-21 22:45:00,48.4,40.5,30.01,WNW,300,1.0,1.0,74,0.00,,,0.00,meteohub,2013-03-22 05:45:00,
2013-03-21 22:50:00,47.8,40.3,30.02,WNW,288,2.0,2.0,75,0.00,,,0.00,meteohub,2013-03-22 05:50:00,
2013-03-21 22:55:00,47.7,40.1,30.02,NNW,346,0.0,3.0,75,0.00,,,0.00,meteohub,2013-03-22 05:55:00,
2013-03-21 23:00:00,47.7,40.5,30.02,NNE,28,1.0,3.0,76,0.00,,,0.00,meteohub,2013-03-22 06:00:00,
2013-03-21 23:05:00,47.5,40.3,30.02,WSW,244,2.0,2.0,76,0.00,,,0.00,meteohub,2013-03-22 06:05:00,
2013-03-21 23:10:00,47.5,39.9,30.02,WSW,254,0.0,3.0,75,0.00,,,0.00,meteohub,2013-03-22 06:10:00,
2013-03-21 23:15:00,47.1,39.9,30.02,WSW,254,0.0,3.0,76,0.00,,,0.00,meteohub,2013-03-22 06:15:00,
2013-03-21 23:20:00,46.9,40.1,30.01,WSW,254,0.0,2.0,77,0.00,,,0.00,meteohub,2013-03-22 06:20:00,
2013-03-21 23:25:00,46.8,39.9,30.01,WSW,254,0.0,1.0,77,0.00,,,0.00,meteohub,2013-03-22 06:25:00,
2013-03-21 23:30:00,46.2,39.7,30.01,WSW,254,0.0,1.0,78,0.00,,,0.00,meteohub,2013-03-22 06:30:00,
2013-03-21 23:36:00,45.9,39.7,30.02,WSW,254,0.0,1.0,79,0.00,,,0.00,meteohub,2013-03-22 06:36:00,
2013-03-21 23:41:00,45.5,40.1,30.02,WSW,247,0.0,1.0,81,0.00,,,0.00,meteohub,2013-03-22 06:41:00,
2013-03-21 23:46:00,45.3,39.9,30.02,WSW,248,0.0,1.0,81,0.00,,,0.00,meteohub,2013-03-22 06:46:00,
2013-03-21 23:51:00,45.0,39.6,30.01,WSW,248,1.0,1.0,81,0.00,,,0.00,meteohub,2013-03-22 06:51:00,
2013-03-21 23:56:00,44.8,39.6,30.01,WSW,248,0.0,1.0,82,0.00,,,0.00,meteohub,2013-03-22 06:56:00,